Lille, France

10:23 AM CET on January 20, 2018 (GMT +0100)
Lesquin

Weather History for LFQQ - March, 2013

Change the Weather History Date:

Monday, March 18, 2013

  Actual Average Record
Temperature  
Mean Temperature 42 °F -  
Max Temperature 48 °F 54 °F 59 °F (2004)
Min Temperature 35 °F 39 °F 33 °F (2003)
Degree Days  
Heating Degree Days 24    
Moisture  
Dew Point 36 °F    
Average Humidity 82    
Maximum Humidity 93    
Minimum Humidity 57    
Precipitation  
Precipitation 0.08 in - - ()
Sea Level Pressure  
Sea Level Pressure 29.28 in    
Wind  
Wind Speed 9 mph ()    
Max Wind Speed 16 mph    
Max Gust Speed -    
Visibility 6.2 miles    
Events Rain    
Averages and records for this station are not official NWS values.
T = Trace of Precipitation, MM = Missing Value Source: Averaged Metar Reports

Daily Weather History Graph

Daily Weather History Graph

Search for Another Location

Airport or City:

Trip Planner

Search our weather history database for the weather conditions in past years. The results will help you decide how hot, cold, wet, or windy it might be!

Date:

Astronomy

Mar. 18, 2013 Rise Set
Actual Time 6:54 AM CET 6:57 PM CET
Civil Twilight 6:22 AM CET 7:30 PM CET
Nautical Twilight 5:43 AM CET 8:08 PM CET
Astronomical Twilight 5:04 AM CET 8:48 PM CET
Moon 10:06 AM CET (3/18) 1:18 AM CET (3/18)
Length of Visible Light 13h 08m
Length of Day
12h 02m
Waxing Crescent, 38% of the Moon is Illuminated
Mar 18
Waxing Crescent
Mar 19
First Quarter
Mar 27
Full
Apr 3
Last Quarter
Apr 10
New

Hourly Weather History & Observations

Time (CET) Temp. Windchill Dew Point Humidity Pressure Visibility Wind Dir Wind Speed Gust Speed Precip Events Conditions
12:00 AM 39.2 °F 31.6 °F 35.6 °F 87% 29.27 in 6.2 mi SW 12.7 mph - N/A Rain Light Rain
1:00 AM 39 °F - 35 °F 78% 29.29 in 6 mi SW 16.1 mph - - Rain Light Rain
1:00 AM 39.2 °F 30.5 °F 33.8 °F 81% 29.27 in 6.2 mi SW 16.1 mph - N/A   Mostly Cloudy
1:30 AM 39.2 °F 30.5 °F 33.8 °F 81% 29.27 in 6.2 mi SW 16.1 mph - N/A   Mostly Cloudy
2:00 AM 37.4 °F 28.9 °F 33.8 °F 87% 29.30 in 6.2 mi SSW 13.8 mph - N/A   Mostly Cloudy
2:30 AM 37.4 °F 29.3 °F 32.0 °F 81% 29.30 in 6.2 mi SW 12.7 mph - N/A   Scattered Clouds
3:00 AM 35.6 °F 26.6 °F 32.0 °F 87% 29.30 in 6.2 mi SSW 13.8 mph - N/A   Unknown
3:30 AM 35.6 °F 27.5 °F 32.0 °F 87% 29.30 in 6.2 mi SSW 11.5 mph - N/A   Unknown
4:00 AM 35.6 °F 28.6 °F 32.0 °F 87% 29.30 in - SSW 9.2 mph - N/A   Clear
4:29 AM 35.6 °F 29.9 °F 32.0 °F 87% 29.30 in - SSW 6.9 mph - N/A   Clear
5:00 AM 35.6 °F 29.2 °F 32.0 °F 87% 29.30 in - SSW 8.1 mph - N/A   Clear
5:30 AM 35.6 °F 29.2 °F 32.0 °F 87% 29.30 in - South 8.1 mph - N/A   Clear
6:00 AM 35.6 °F 29.9 °F 32.0 °F 87% 29.30 in - South 6.9 mph - N/A   Clear
6:30 AM 35.6 °F 31.7 °F 32.0 °F 87% 29.30 in - South 4.6 mph - N/A   Clear
7:00 AM 36 °F - 32 °F 81% 29.31 in 12 mi SSE 5.8 mph - -   Partly Cloudy
7:00 AM 35.6 °F 31.7 °F 32.0 °F 87% 29.30 in - SSE 4.6 mph - N/A   Clear
7:30 AM 35.6 °F 29.9 °F 32.0 °F 87% 29.30 in - South 6.9 mph - N/A   Clear
8:00 AM 37.4 °F 31.4 °F 33.8 °F 87% 29.30 in 6.2 mi South 8.1 mph - N/A   Mostly Cloudy
8:30 AM 37.4 °F 30.8 °F 33.8 °F 87% 29.30 in 6.2 mi South 9.2 mph - N/A Rain Light Rain
9:00 AM 37.4 °F 30.8 °F 35.6 °F 93% 29.30 in 6.2 mi South 9.2 mph - N/A Rain Light Rain
9:30 AM 37.4 °F 30.3 °F 35.6 °F 93% 29.30 in 4.3 mi South 10.4 mph - N/A Rain Light Rain
10:00 AM 37.4 °F 32.1 °F 35.6 °F 93% 29.30 in 5.0 mi South 6.9 mph - N/A Rain Light Rain
10:30 AM 39.2 °F 33.0 °F 37.4 °F 93% 29.30 in 6.2 mi South 9.2 mph - N/A Rain Light Rain
11:00 AM 41.0 °F 36.4 °F 37.4 °F 87% 29.27 in 6.2 mi South 6.9 mph - N/A   Mostly Cloudy
11:30 AM 42.8 °F 37.0 °F 37.4 °F 81% 29.27 in 6.2 mi South 10.4 mph - N/A   Mostly Cloudy
12:00 PM 42.8 °F 37.0 °F 37.4 °F 81% 29.27 in 6.2 mi South 10.4 mph - N/A   Mostly Cloudy
12:30 PM 42.8 °F 38.0 °F 37.4 °F 81% 29.27 in 6.2 mi South 8.1 mph - N/A   Mostly Cloudy
1:00 PM 45 °F - 38 °F 69% 29.29 in 25 mi SSW 3.5 mph - -   Partly Cloudy
1:00 PM 44.6 °F 42.2 °F 39.2 °F 81% 29.27 in 6.2 mi SSW 4.6 mph - N/A   Mostly Cloudy
1:30 PM 44.6 °F - 37.4 °F 76% 29.27 in 6.2 mi SW 2.3 mph - N/A   Mostly Cloudy
2:00 PM 48.2 °F - 39.2 °F 71% 29.27 in 6.2 mi Calm Calm - N/A   Mostly Cloudy
2:30 PM 46.4 °F 41.9 °F 39.2 °F 76% 29.27 in 6.2 mi WNW 9.2 mph - N/A   Mostly Cloudy
3:00 PM 46.4 °F 45.2 °F 39.2 °F 76% 29.24 in 6.2 mi WNW 3.5 mph - N/A   Mostly Cloudy
3:30 PM 46.4 °F - 39.2 °F 76% 29.24 in 6.2 mi Variable 2.3 mph - N/A   Mostly Cloudy
4:00 PM 46.4 °F 45.2 °F 37.4 °F 71% 29.24 in 6.2 mi Variable 3.5 mph - N/A   Mostly Cloudy
4:30 PM 48.2 °F - 35.6 °F 62% 29.24 in 6.2 mi SSE 9.2 mph - N/A   Mostly Cloudy
5:00 PM 48.2 °F - 33.8 °F 58% 29.24 in 6.2 mi SSE 9.2 mph - N/A   Mostly Cloudy
5:30 PM 46.4 °F 42.4 °F 33.8 °F 62% 29.24 in 6.2 mi SSE 8.1 mph - N/A   Mostly Cloudy
6:00 PM 46.4 °F 44.3 °F 32.0 °F 57% 29.27 in 6.2 mi South 4.6 mph - N/A   Mostly Cloudy
6:30 PM 44.6 °F 40.2 °F 37.4 °F 76% 29.27 in 6.2 mi WSW 8.1 mph - N/A   Mostly Cloudy
7:00 PM 42.8 °F 41.1 °F 37.4 °F 81% 29.27 in 6.2 mi WNW 3.5 mph - N/A   Mostly Cloudy
7:30 PM 42.8 °F 40.1 °F 39.2 °F 87% 29.27 in 6.2 mi WNW 4.6 mph - N/A   Mostly Cloudy
8:00 PM 41.0 °F 33.9 °F 37.4 °F 87% 29.30 in 6.2 mi SSW 12.7 mph - N/A Rain Light Rain
8:30 PM 41.0 °F 39.0 °F 37.4 °F 87% 29.30 in 5.0 mi WSW 3.5 mph - N/A Rain Light Rain
9:00 PM 41.0 °F - 37.4 °F 87% 29.30 in 6.2 mi Variable 1.2 mph - N/A Rain Light Rain
9:30 PM 41.0 °F - 39.2 °F 93% 29.30 in 6.2 mi SE 2.3 mph - N/A Rain Light Rain
10:00 PM 41.0 °F 39.0 °F 39.2 °F 93% 29.30 in 6.2 mi SE 3.5 mph - N/A Rain Light Rain
10:30 PM 41.0 °F 39.0 °F 39.2 °F 93% 29.30 in 6.2 mi South 3.5 mph - N/A   Mostly Cloudy
11:00 PM 41.0 °F 39.0 °F 39.2 °F 93% 29.30 in 6.2 mi SSW 3.5 mph - N/A   Mostly Cloudy